[[{"header":{"parameterUnit":"m.s-1","parameterCategory":1,"la1":30.2991,"la2":30.254,"lo1":-89.0895,"lo2":-89.0444,"dy":0.0017,"dx":0.0017,"nx":28,"ny":28,"refTime":"2024-06-15T21:00:00:Z","depth":0,"parameterNumber":2,"parameterNumberName":"U-component_of_WINDS"},"data":[0,0,0,0,0,0,0,0,0,0,0,0,0,0,0,0,0,0,0,0,0,0,0,0,0,0,0,0,0,0,0,0,0,0,0,0,0,0,0,0,0,0,0,0,0,0,0,0,0,0,0,0,0,0,0,0,0,0,-3.5635,-3.5636,0,-3.5696,-3.5697,-3.5697,-3.5648,-3.5646,-3.5643,-3.5642,-3.5701,-3.5704,-3.5708,0,0,0,0,0,0,0,0,0,0,0,0,0,-3.5473,-3.5476,-3.5635,-3.5636,-3.5637,-3.5696,-3.5697,-3.5698,-3.5648,-3.5645,-3.5643,-3.5641,-3.5699,-3.5704,-3.5708,0,0,0,0,0,0,0,0,0,0,0,0,0,-3.5539,-3.5477,-3.5635,-3.5619,-3.5618,-3.5696,-3.5697,-3.5698,-3.5649,-3.5645,-3.5642,-3.5639,-3.5698,-3.5703,-3.5708,-3.5804,0,0,-3.5725,-3.5727,0,0,0,0,0,0,0,0,-3.5536,-3.5545,-3.5621,-3.562,-3.562,-3.5661,-3.5661,-3.5733,-3.5649,-3.5637,-3.5641,-3.5638,-3.569,-3.5696,-3.5714,-3.5806,-3.5809,-3.5725,-3.5728,-3.573,-3.5732,0,0,0,0,0,0,0,-3.5531,-3.5543,-3.5659,-3.5622,-3.5621,-3.5608,-3.5614,-3.5675,-3.568,-3.5638,-3.5634,-3.5642,-3.5689,-3.5709,-3.5715,-3.581,-3.5725,-3.573,-3.5733,-3.5735,-3.5982,-3.5985,0,0,0,0,0,0,-3.5529,-3.5539,-3.5657,-3.5661,-3.5569,-3.5613,-3.562,-3.5651,-3.5679,-3.5681,-3.5645,-3.564,-3.5701,-3.5709,-3.5717,-3.5828,-3.573,-3.5735,-3.5738,-3.5978,-3.5982,-3.5986,0,0,0,0,0,0,-3.5525,-3.554,-3.5655,-3.5599,-3.5613,-3.562,-3.5655,-3.5654,-3.5674,-3.5685,-3.5685,-3.5665,-3.5699,-3.5709,-3.5782,-3.5829,-3.5738,-3.5743,-3.5974,-3.598,-3.5984,-3.6053,0,0,0,0,0,0,-3.5521,-3.5539,-3.5576,-3.56,-3.5616,-3.572,-3.5658,-3.5657,-3.5683,-3.5677,-3.5703,-3.5704,-3.5697,-3.5775,-3.5787,-3.5835,-3.5747,-3.597,-3.5977,-3.5983,-3.6046,-3.606,-3.6071,0,0,0,0,0,-3.5515,-3.5592,-3.5578,-3.5592,-3.5662,-3.5723,-3.5732,-3.5723,-3.5687,-3.5724,-3.5731,-3.5704,-3.5823,-3.5782,-3.5796,-3.5846,-3.5967,-3.5975,-3.5982,-3.6041,-3.6057,-3.6071,0,0,0,0,0,0,-3.5572,-3.5595,-3.5579,-3.5667,-3.5694,-3.5715,-3.576,-3.5741,-3.5777,-3.577,-3.5757,-3.5763,-3.5839,-3.5851,-3.5805,-3.5939,-3.5889,-3.59,-3.5929,-3.5944,-3.5957,-3.5951,-3.5751,0,0,0,0,0,-3.5595,-3.5643,-3.5661,-3.5736,-3.5751,-3.5754,-3.578,-3.5771,-3.5797,-3.5808,-3.582,-3.5846,-3.5889,-3.5918,-3.5958,-3.6049,-3.6053,-3.609,-3.6102,-3.6113,-3.6121,-3.6168,-3.6184,-3.6011,-3.6011,-3.6011,0,0,-3.5642,-3.5661,-3.5692,-3.5748,-3.5768,-3.5817,-3.5763,-3.5818,-3.5853,-3.5816,-3.5885,-3.5895,-3.5923,-3.6005,-3.6042,-3.6017,-3.617,-3.6122,-3.613,-3.6133,-3.6177,-3.6194,-3.6208,-3.6016,-3.6015,-3.6015,0,0,-3.5753,-3.5773,-3.5837,-3.5858,-3.5889,-3.589,-3.5906,-3.593,-3.5936,-3.6006,-3.5978,-3.602,-3.6095,-3.6116,-3.6136,-3.6255,-3.6231,-3.6269,-3.6332,-3.6378,-3.6392,-3.6404,-3.6444,-3.6459,-3.6278,-3.6278,-3.6278,0,-3.5807,-3.5881,-3.5872,-3.5929,-3.5953,-3.5923,-3.5987,-3.6008,-3.605,-3.6067,-3.6039,-3.6132,-3.6149,-3.6234,-3.6263,-3.6281,-3.6297,-3.6265,-3.6391,-3.6403,-3.6414,-3.6452,-3.6467,-3.6283,-3.6282,-3.6282,-3.6281,0,-3.5945,-3.5997,-3.6045,-3.6087,-3.6117,-3.6177,-3.6177,-3.6208,-3.6197,-3.6201,-3.6272,-3.6292,-3.6335,-3.6355,-3.6344,-3.6438,-3.6422,-3.6393,-3.6341,-3.6435,-3.647,-3.6485,-3.6289,-3.6287,-3.6286,-3.6285,0,0,-3.6092,-3.6129,-3.6146,-3.6164,-3.6196,-3.6235,-3.6293,-3.6337,-3.6363,-3.6393,-3.644,-3.6505,-3.6478,-3.6502,-3.6493,-3.6534,-3.6624,-3.65,-3.65,-3.652,-3.6727,-3.6746,-3.6764,-3.661,-3.6612,-3.6615,-3.6723,0,-3.6202,-3.6304,-3.6298,-3.6393,-3.6439,-3.6412,-3.6462,-3.6486,-3.6492,-3.6532,-3.6538,-3.6583,-3.6545,-3.6559,-3.6598,-3.6605,-3.6665,-3.6598,-3.6651,-3.6653,-3.6642,-3.6782,-3.6804,-3.6905,-3.6738,-3.674,-3.6742,0,-3.6344,-3.6379,-3.6479,-3.6503,-3.6522,-3.6568,-3.6606,-3.6645,-3.6672,-3.6673,-3.67,-3.6684,-3.6742,-3.6691,-3.6769,-3.6723,-3.6745,-3.6752,-3.6756,-3.6758,-3.6701,-3.6786,-3.6938,-3.6952,-3.6764,-3.6762,-3.6761,0,-3.6437,-3.651,-3.6579,-3.6596,-3.6626,-3.6659,-3.6673,-3.6696,-3.6722,-3.6756,-3.6772,-3.6813,-3.6834,-3.6865,-3.686,-3.6824,-3.6939,-3.6888,-3.6939,-3.694,-3.6963,-3.6961,-3.7117,-3.6982,-3.6981,-3.6981,-3.6981,0,-3.6559,-3.6621,-3.6621,-3.6663,-3.6731,-3.6724,-3.6791,-3.6801,-3.6823,-3.6865,-3.6844,-3.6884,-3.6878,-3.6918,-3.6915,-3.6978,-3.6989,-3.699,-3.6988,-3.6991,-3.699,-3.7003,-3.6994,-3.6985,-3.6984,-3.6983,-3.6983,0,-3.6674,-3.6678,-3.675,-3.6773,-3.6781,-3.6829,-3.6848,-3.6887,-3.6892,-3.6946,-3.6958,-3.6965,-3.7011,-3.701,-3.7063,-3.7061,-3.7138,-3.7129,-3.7129,-3.7126,-3.7177,-3.7171,-3.7344,-3.7366,-3.7219,-3.722,-3.7221,0,-3.6751,-3.6798,-3.6826,-3.6853,-3.6869,-3.6914,-3.694,-3.6935,-3.6963,-3.6997,-3.7032,-3.7076,-3.7111,-3.7186,-3.7194,-3.7234,-3.7224,-3.7282,-3.723,-3.723,-3.7222,-3.7218,-3.7222,-3.7292,-3.7293,-3.7295,-3.7296,0,-3.6885,-3.6885,-3.6924,-3.6964,-3.6997,-3.7028,-3.7057,-3.708,-3.7078,-3.711,-3.7157,-3.7185,-3.7238,-3.7282,-3.732,-3.7333,-3.7313,-3.7313,-3.7326,-3.7328,-3.7325,-3.7325,-3.7154,-3.7308,-3.7307,-3.7306,-3.7305,-3.7305,-3.6982,-3.7021,-3.7047,-3.7092,-3.7113,-3.714,-3.7178,-3.7187,-3.7227,-3.727,-3.7264,-3.7316,-3.7341,-3.7391,-3.7407,-3.7447,-3.7426,-3.7447,-3.7451,-3.7456,-3.746,-3.7321,-3.7454,-3.7454,-3.7454,-3.7453,-3.7453,0,-3.7113,-3.7129,-3.717,-3.7211,-3.7245,-3.7226,-3.7257,-3.7286,-3.7333,-3.7358,-3.7393,-3.7446,-3.7488,-3.7501,-3.7541,-3.757,-3.7562,-3.7581,-3.7577,-3.758,-3.7477,-3.746,-3.7587,-3.7587,-3.7587,-3.7586,-3.7586,-3.7586,-3.7186,-3.7251,-3.7253,-3.7329,-3.7343,-3.7394,-3.7413,-3.7438,-3.7458,-3.7519,-3.7554,-3.7562,-3.7582,-3.7623,-3.7661,-3.7663,-3.7678,-3.77,-3.7698,-3.7601,-3.7588,-3.7575,-3.7559,-3.7703,-3.7704,-3.7797,-3.7798,-3.7799]},{"header":{"parameterUnit":"m.s-1","parameterCategory":1,"la1":30.2991,"la2":30.254,"lo1":-89.0895,"lo2":-89.0444,"dy":0.0017,"dx":0.0017,"nx":28,"ny":28,"refTime":"2024-06-15T21:00:00:Z","depth":0,"parameterNumber":3,"parameterNumberName":"V-component_of_WINDS"},"data":[0,0,0,0,0,0,0,0,0,0,0,0,0,0,0,0,0,0,0,0,0,0,0,0,0,0,0,0,0,0,0,0,0,0,0,0,0,0,0,0,0,0,0,0,0,0,0,0,0,0,0,0,0,0,0,0,0,0,1.8153,1.8154,0,1.8227,1.8228,1.8229,1.8236,1.8236,1.8235,1.8234,1.8307,1.8309,1.8312,0,0,0,0,0,0,0,0,0,0,0,0,0,1.8014,1.8017,1.8153,1.8154,1.8155,1.8227,1.8228,1.8229,1.8236,1.8236,1.8235,1.8234,1.8306,1.8309,1.8312,0,0,0,0,0,0,0,0,0,0,0,0,0,1.808,1.8018,1.8153,1.8167,1.8169,1.8227,1.8228,1.8229,1.8237,1.8236,1.8234,1.8233,1.8305,1.8309,1.8313,1.836,0,0,1.8325,1.8326,0,0,0,0,0,0,0,0,1.8076,1.8085,1.8164,1.8166,1.8169,1.8221,1.8206,1.8273,1.8237,1.8211,1.8234,1.8233,1.8279,1.8285,1.8301,1.8363,1.8366,1.8325,1.8327,1.8329,1.833,0,0,0,0,0,0,0,1.8072,1.8082,1.8182,1.8165,1.8168,1.8169,1.8177,1.8219,1.825,1.8213,1.8214,1.8223,1.828,1.8298,1.8303,1.8368,1.8325,1.8328,1.8331,1.8332,1.8473,1.8474,0,0,0,0,0,0,1.8065,1.8078,1.818,1.8184,1.8119,1.8173,1.8182,1.8206,1.825,1.8256,1.8224,1.8223,1.8291,1.8299,1.8306,1.8365,1.8329,1.8333,1.8335,1.8472,1.8473,1.8475,0,0,0,0,0,0,1.8062,1.8074,1.8177,1.8132,1.8145,1.8176,1.8203,1.8208,1.8225,1.8258,1.8263,1.8236,1.8291,1.83,1.8347,1.8367,1.8335,1.8338,1.847,1.8472,1.8474,1.8482,0,0,0,0,0,0,1.8058,1.8073,1.8092,1.8132,1.8147,1.8217,1.8204,1.821,1.8232,1.8232,1.8271,1.8276,1.8291,1.8341,1.8351,1.8372,1.8341,1.8468,1.8471,1.8473,1.848,1.8484,1.8488,0,0,0,0,0,1.8053,1.809,1.8093,1.8105,1.8172,1.8219,1.8227,1.8244,1.8234,1.8253,1.8274,1.8275,1.8364,1.8346,1.8357,1.8379,1.8467,1.847,1.8473,1.8478,1.8483,1.8488,0,0,0,0,0,0,1.8049,1.8095,1.8099,1.815,1.8181,1.822,1.8244,1.8248,1.8281,1.8279,1.8298,1.8307,1.8353,1.8371,1.835,1.8428,1.8414,1.842,1.8414,1.8419,1.8423,1.8417,1.8345,0,0,0,0,0,1.8055,1.809,1.8128,1.817,1.8185,1.8212,1.8233,1.8244,1.8275,1.8288,1.8312,1.8342,1.8377,1.8399,1.8433,1.8483,1.8492,1.8504,1.8508,1.8511,1.8515,1.8544,1.855,1.8485,1.8485,1.8485,0,0,1.8066,1.8096,1.8116,1.817,1.8195,1.823,1.8223,1.826,1.8287,1.8293,1.8339,1.8358,1.8393,1.8442,1.8465,1.8458,1.8535,1.8515,1.8517,1.852,1.8547,1.8554,1.8559,1.8487,1.8486,1.8486,0,0,1.8104,1.8131,1.8168,1.8194,1.8232,1.825,1.8259,1.8298,1.8312,1.8359,1.8365,1.8396,1.8455,1.848,1.85,1.855,1.8552,1.856,1.8579,1.8607,1.8612,1.8616,1.8634,1.864,1.8564,1.8565,1.8565,0,1.8113,1.8168,1.8187,1.8225,1.8248,1.8258,1.8296,1.832,1.8366,1.8382,1.8375,1.845,1.8474,1.8529,1.8542,1.8558,1.8568,1.8555,1.861,1.8615,1.8619,1.8636,1.8643,1.8565,1.8565,1.8565,1.8565,0,1.8176,1.8214,1.824,1.8287,1.8313,1.8351,1.8375,1.84,1.8408,1.8427,1.8475,1.8504,1.8544,1.8558,1.8566,1.8615,1.861,1.8606,1.8592,1.8626,1.8642,1.8649,1.8566,1.8566,1.8566,1.8566,0,0,1.8213,1.8272,1.8281,1.8302,1.8346,1.8375,1.8414,1.8454,1.8475,1.8507,1.8539,1.859,1.8588,1.8611,1.8622,1.8646,1.8684,1.864,1.8641,1.8647,1.8739,1.8741,1.8749,1.8686,1.8687,1.8688,1.8736,0,1.8256,1.8326,1.8345,1.8404,1.8439,1.8449,1.8483,1.8513,1.8532,1.8564,1.8584,1.862,1.8614,1.8628,1.8652,1.8674,1.8703,1.8671,1.8716,1.8717,1.8706,1.8757,1.8759,1.8803,1.8743,1.8744,1.8745,0,1.8315,1.8351,1.8413,1.8454,1.8469,1.8499,1.8538,1.8569,1.8604,1.8616,1.8642,1.8652,1.8692,1.8677,1.8732,1.871,1.873,1.8744,1.8746,1.875,1.8732,1.8762,1.8817,1.8823,1.8755,1.8754,1.8753,0,1.8336,1.8399,1.8445,1.8463,1.8511,1.8532,1.8553,1.8586,1.861,1.8644,1.866,1.8698,1.8718,1.8747,1.8767,1.8754,1.882,1.8807,1.8831,1.883,1.8843,1.8842,1.8902,1.8857,1.8857,1.8857,1.8857,0,1.8382,1.8419,1.8455,1.8483,1.8526,1.8547,1.8589,1.861,1.864,1.8672,1.8683,1.8712,1.8737,1.8769,1.8785,1.8828,1.8838,1.8848,1.8851,1.8847,1.8845,1.8859,1.8856,1.8858,1.8858,1.8858,1.8857,0,1.8411,1.8436,1.8487,1.8529,1.8541,1.857,1.8606,1.8634,1.8653,1.8694,1.8704,1.8735,1.8774,1.8797,1.8846,1.8856,1.8905,1.8907,1.8893,1.8895,1.8917,1.8915,1.8987,1.8998,1.8947,1.8947,1.8947,0,1.8438,1.8468,1.8514,1.8537,1.8558,1.8595,1.862,1.8642,1.8667,1.871,1.8732,1.8772,1.8806,1.8868,1.8894,1.8932,1.8935,1.8958,1.8941,1.8935,1.8935,1.8933,1.8936,1.8961,1.8961,1.8961,1.8962,0,1.8484,1.8496,1.8531,1.8572,1.8601,1.8634,1.8666,1.8684,1.8712,1.874,1.8781,1.8807,1.8858,1.8898,1.8939,1.8959,1.8965,1.8967,1.8975,1.897,1.8961,1.8966,1.8901,1.8965,1.8965,1.8965,1.8964,1.8964,1.8513,1.854,1.8577,1.8617,1.8644,1.8674,1.8703,1.8727,1.8762,1.8806,1.8817,1.886,1.8895,1.895,1.8972,1.9006,1.9001,1.9012,1.9015,1.9017,1.9018,1.8956,1.9013,1.9013,1.9013,1.9013,1.9013,0,1.8559,1.8584,1.862,1.8666,1.8697,1.8702,1.8738,1.8764,1.8802,1.8834,1.8868,1.8915,1.8954,1.8984,1.9024,1.9046,1.9049,1.9055,1.9054,1.9058,1.9019,1.9009,1.9052,1.9052,1.9052,1.9052,1.9052,1.9052,1.8587,1.8633,1.8649,1.8709,1.8733,1.8777,1.8797,1.8825,1.8851,1.8904,1.8937,1.8957,1.8989,1.9031,1.9067,1.9075,1.9089,1.9095,1.9103,1.9065,1.9061,1.9057,1.9047,1.9098,1.9098,1.9139,1.9139,1.914]}]]